Flag for Martinique Weather past 2 weeks in Fort-de-France, Martinique

Now
82 °F

Broken clouds.


Feels Like: 89 °F
Forecast: N/A
Wind: 10 mph from East

Location: Le Lamentin Airport

Current Time: May 28, 2015 at 5:33:19 PM

Latest Report: May 28, 2015 at 5:00 PM


Visibility: N/A

Pressure: 29.92 "Hg

Humidity: 79%

Dew point: 75 °F

Location of Fort-de-FranceLocation

Historic Weather in Fort-de-France — Graph

°F

Fort-de-France temperature yesterday

Maximum temperature yesterday: 88 °F (at 11:00 AM)
Minimum temperature yesterday: 70 °F (at 4:00 AM)
Average temperature yesterday: 80 °F

Past Weeks' High & Low Weather Summary

 TemperatureHumidityPressure
High90 °F (May 19, 1:30 PM)94% (May 27, 4:00 AM)30.09 "Hg (May 27, 4:00 AM)
Low70 °F (May 27, 4:00 AM)46% (May 27, 4:30 PM)29.92 "Hg (May 20, 4:00 PM)
Average82 °F69%30.00 "Hg
* Reported May 13 4:00 PM — May 28 4:00 PM, Fort-de-France, Weather by CustomWeather, © 2015

Note: Actual official high and low records may vary slightly from our data, if they occured in-between our weather recording intervals... More about our weather records

Advertising

Fort-de-France weather history for previous 24 hours

 ConditionsComfort  
Time TempWeatherWind HumidityBarometerVisibility
4:00 PM
Thu, May 28
84 °FBroken clouds.14 mph70%29.92 "HgN/A
3:30 PM84 °FBroken clouds.14 mph70%29.92 "HgN/A
3:00 PM84 °FPartly sunny.14 mph70%29.92 "HgN/A
2:30 PM84 °FPartly sunny.13 mph74%29.95 "HgN/A
2:00 PM84 °FMore clouds than sun.13 mph74%29.95 "HgN/A
1:30 PM84 °FPartly sunny.15 mph74%29.95 "HgN/A
1:00 PM84 °FPartly sunny.14 mph74%29.95 "HgN/A
12:30 PM84 °FPartly sunny.10 mph74%29.95 "HgN/A
12:00 PM81 °FPartly sunny.14 mph84%29.98 "HgN/A
11:30 AM81 °FMore clouds than sun.9 mph89%29.98 "HgN/A
11:00 AM79 °FBroken clouds.10 mph89%29.98 "HgN/A
10:30 AM82 °FMostly cloudy.N/A84%29.98 "HgN/A
10:00 AM81 °FPartly sunny.6 mph84%29.98 "HgN/A
9:30 AM81 °FBroken clouds.6 mph89%30.01 "HgN/A
9:00 AM79 °FLight rain. Broken clouds.7 mph84%29.98 "HgN/A
8:30 AM79 °FMostly cloudy.6 mph89%29.98 "HgN/A
8:00 AM77 °FLight rain. Mostly cloudy.7 mph89%29.98 "HgN/A
7:30 AM79 °FLight rain. Broken clouds.12 mph84%29.98 "HgN/A
7:00 AM81 °FPartly sunny.3 mph79%29.95 "HgN/A
6:30 AM79 °FMore clouds than sun.3 mph84%29.95 "HgN/A
6:00 AM79 °FLight rain. Cloudy.5 mph84%29.95 "HgN/A
5:30 AM77 °FPassing clouds.2 mph83%29.92 "HgN/A
5:00 AM77 °FPassing clouds.3 mph83%29.92 "HgN/A
4:30 AM77 °FClear.3 mph83%29.92 "HgN/A
4:00 AM77 °FClear.5 mph83%29.92 "HgN/A
3:30 AM77 °FPassing clouds.5 mph83%29.92 "HgN/A
3:00 AM77 °FClear.6 mph79%29.92 "HgN/A
2:30 AM77 °FPassing clouds.5 mph83%29.92 "HgN/A
2:00 AM77 °FPassing clouds.6 mph83%29.92 "HgN/A
1:30 AM77 °FClear.6 mph79%29.92 "HgN/A
1:00 AM79 °FClear.8 mph74%29.92 "HgN/A
12:30 AM79 °FPassing clouds.7 mph79%29.95 "HgN/A
12:00 AM79 °FPassing clouds.7 mph79%29.95 "HgN/A
11:30 PM
Wed, May 27
79 °FPassing clouds.7 mph79%29.98 "HgN/A
11:00 PM79 °FPassing clouds.6 mph74%29.98 "HgN/A
10:30 PM79 °FPassing clouds.7 mph79%29.98 "HgN/A
10:00 PM79 °FClear.7 mph74%29.98 "HgN/A
9:30 PM79 °FPassing clouds.7 mph74%29.98 "HgN/A
9:00 PM79 °FClear.6 mph74%29.98 "HgN/A
8:30 PM79 °FClear.6 mph74%29.95 "HgN/A
8:00 PM79 °FClear.7 mph74%29.95 "HgN/A
7:30 PM79 °FClear.5 mph74%29.95 "HgN/A
7:00 PM79 °FClear.7 mph70%29.95 "HgN/A
6:30 PM81 °FClear.10 mph66%29.92 "HgN/A
6:00 PM82 °FClear.12 mph62%29.92 "HgN/A
5:30 PM82 °FClear.13 mph62%29.92 "HgN/A
5:00 PM84 °FClear.13 mph55%29.92 "HgN/A
Weather by CustomWeather, © 2015

See weather overviewHow to use our weather pages